DL1JBO Weather Reports


Display with metric or nautical units.
time (UTC)temp
F
wind
direction
speed
MPH
gust
MPH
rain 1hr
in
rain 24hr
in
rain mn
in
humidity
%
barometer
mb
20260506034204 55 17 0.0 0.0 0.00 0.65 0.06 96 1002.6
20260506033704 55 65 0.0 0.0 0.00 0.65 0.06 96 1002.6
20260506033205 55 65 0.0 0.0 0.00 0.65 0.06 96 1002.7
20260506032704 55 65 0.0 0.0 0.00 0.65 0.06 96 1002.7
20260506032204 55 65 0.0 0.0 0.00 0.65 0.06 96 1002.7
20260506031704 55 65 0.0 0.0 0.00 0.65 0.06 96 1002.8
20260506031204 55 65 0.0 0.0 0.00 0.65 0.06 96 1002.9
20260506030704 55 65 0.0 0.0 0.00 0.65 0.06 96 1002.9
20260506030207 55 65 0.0 0.0 0.00 0.65 0.06 96 1002.8
20260506025704 55 65 0.0 0.0 0.00 0.65 0.06 96 1002.9
20260506025207 55 65 0.0 0.0 0.00 0.65 0.06 96 1002.9
20260506024704 55 65 0.0 0.0 0.00 0.65 0.06 96 1002.9
20260506024207 55 65 0.0 0.0 0.00 0.65 0.06 96 1003.0
20260506023204 55 65 0.0 0.0 0.00 0.65 0.06 96 1003.1
20260506022704 55 65 0.0 0.0 0.00 0.65 0.06 96 1003.0
20260506022204 55 65 0.0 0.0 0.00 0.65 0.06 96 1003.1
20260506021704 55 65 0.0 0.0 0.00 0.65 0.06 96 1003.1
20260506021205 55 65 0.0 0.0 0.00 0.65 0.06 96 1003.1
20260506020705 55 65 0.0 0.0 0.00 0.65 0.06 96 1003.1
20260506020205 55 65 0.0 0.0 0.00 0.65 0.06 96 1003.1
20260506015704 55 65 0.0 0.0 0.00 0.65 0.06 96 1003.1
20260506015204 55 65 0.0 0.0 0.00 0.65 0.06 96 1003.3
20260506014705 55 65 0.0 0.0 0.00 0.65 0.06 96 1003.4
20260506014204 55 65 0.0 0.0 0.00 0.65 0.06 96 1003.4
20260506013704 55 65 0.0 0.0 0.00 0.65 0.06 96 1003.5
20260506013204 55 65 0.0 0.0 0.00 0.65 0.06 96 1003.5
20260506012704 55 65 0.0 0.0 0.00 0.65 0.06 96 1003.6
20260506012204 55 65 0.0 0.0 0.00 0.65 0.06 96 1003.6
20260506011704 55 65 0.0 0.0 0.00 0.65 0.06 96 1003.6
20260506011204 55 65 0.0 0.0 0.00 0.65 0.06 96 1003.6
20260506010704 55 65 0.0 0.0 0.00 0.65 0.06 96 1003.7
20260506010204 55 65 0.0 0.0 0.00 0.65 0.06 96 1003.7
20260506005704 55 65 0.0 0.0 0.01 0.65 0.06 96 1003.7
20260506005204 55 65 0.0 0.0 0.01 0.65 0.06 96 1003.7
20260506004704 55 65 0.0 0.0 0.01 0.65 0.06 96 1003.8
20260506004204 55 65 0.0 0.0 0.01 0.65 0.06 96 1003.8
20260506002704 55 65 0.0 0.0 0.01 0.65 0.06 96 1004.0
20260506002205 55 65 0.0 0.0 0.01 0.65 0.06 96 1004.0
20260506001703 55 65 0.0 0.0 0.01 0.65 0.06 96 1004.1
20260506001204 55 65 0.0 0.0 0.01 0.65 0.06 96 1004.1
20260506000704 55 65 0.0 0.0 0.01 0.65 0.06 96 1004.3
20260506000205 55 65 0.0 0.0 0.01 0.65 0.06 96 1004.3
20260505235703 55 65 0.0 0.0 0.00 0.64 0.05 96 1004.3
20260505235208 55 65 0.0 0.0 0.00 0.64 0.05 96 1004.4
20260505234704 55 65 0.0 0.0 0.00 0.64 0.05 96 1004.4
20260505234227 55 65 0.0 0.0 0.00 0.64 0.05 96 1004.4
20260505233704 55 65 0.0 0.0 0.01 0.64 0.05 96 1004.4
20260505233204 55 65 0.0 0.0 0.01 0.64 0.05 96 1004.5
20260505232704 55 65 0.0 0.0 0.01 0.64 0.05 96 1004.6
20260505232204 55 65 0.0 0.0 0.02 0.64 0.05 96 1004.5
20260505231707 55 65 0.0 0.0 0.02 0.64 0.05 95 1004.5
20260505231204 55 65 0.0 0.0 0.02 0.64 0.05 95 1004.4
20260505230705 55 65 0.0 0.0 0.03 0.64 0.05 95 1004.4
20260505230207 55 65 0.0 0.0 0.05 0.64 0.05 95 1004.4
20260505225704 55 65 0.0 0.0 0.06 0.64 0.05 95 1004.3
20260505225204 55 65 0.0 0.0 0.08 0.64 0.05 95 1004.2
20260505224704 55 65 0.0 0.0 0.09 0.64 0.05 95 1004.2
20260505224204 55 65 0.0 0.0 0.11 0.63 0.04 95 1004.2
20260505223706 55 65 0.0 0.0 0.13 0.63 0.04 95 1004.1
20260505223204 55 65 0.0 0.0 0.13 0.63 0.04 95 1004.1
20260505222704 55 65 0.0 0.0 0.13 0.62 0.03 95 1004.1
20260505221704 55 65 0.0 0.0 0.17 0.62 0.03 95 1004.2
20260505221222 56 65 0.0 0.0 0.17 0.61 0.02 95 1004.4
20260505220704 56 65 0.0 0.0 0.20 0.61 0.02 95 1004.6
20260505220204 56 65 0.0 0.0 0.21 0.59 0.59 95 1004.6
20260505215704 56 65 0.0 0.0 0.22 0.57 0.57 95 1004.8
20260505215204 56 65 0.0 0.0 0.23 0.55 0.55 95 1005.1
20260505214704 56 65 0.0 0.0 0.24 0.54 0.54 95 1005.2
20260505214204 56 65 0.0 0.0 0.24 0.51 0.51 94 1005.2
20260505213704 56 65 0.0 0.0 0.24 0.50 0.50 94 1005.4
20260505213204 56 65 0.0 0.0 0.24 0.50 0.50 94 1005.5
20260505212704 56 65 0.0 0.0 0.26 0.49 0.49 94 1005.6
20260505212204 57 65 0.0 0.0 0.26 0.47 0.47 94 1005.7
20260505211704 57 65 0.0 0.0 0.24 0.45 0.45 94 1005.8
20260505211204 57 65 0.0 5.0 0.24 0.43 0.41 94 1005.9
20260505210203 58 63 0.0 5.0 0.17 0.36 0.36 93 1005.9
20260505205704 58 17 0.0 1.0 0.16 0.35 0.35 94 1005.9
20260505204704 59 5 0.0 0.0 0.11 0.29 0.29 95 1005.6
20260505204204 59 5 0.0 1.0 0.10 0.28 0.28 94 1005.6
20260505203704 59 5 0.0 1.0 0.09 0.26 0.26 94 1005.4
20260505203204 59 5 0.0 1.0 0.07 0.24 0.24 94 1005.2
20260505202707 58 5 0.0 1.0 0.07 0.23 0.23 94 1004.9
20260505202204 58 5 0.0 1.0 0.06 0.21 0.21 94 1004.5
20260505201204 58 5 0.0 0.0 0.06 0.20 0.20 94 1004.3
20260505200704 58 5 0.0 1.0 0.07 0.20 0.20 93 1004.4
20260505200204 59 5 0.0 1.0 0.09 0.20 0.20 93 1004.3
20260505195204 59 69 0.0 0.0 0.11 0.18 0.18 93 1004.1
20260505194704 59 107 0.0 0.0 0.12 0.17 0.17 92 1004.1
20260505194204 59 107 0.0 0.0 0.11 0.17 0.17 93 1004.2
20260505193705 59 347 0.0 0.0 0.10 0.17 0.17 92 1004.3
20260505193204 59 347 0.0 0.0 0.10 0.17 0.17 92 1004.2
20260505192704 59 347 0.0 0.0 0.09 0.16 0.16 91 1004.2
20260505192204 60 347 0.0 0.0 0.09 0.15 0.15 91 1004.3
20260505191704 60 347 0.0 1.0 0.08 0.14 0.14 91 1004.4
20260505191204 60 347 0.0 1.0 0.07 0.13 0.13 90 1004.3
20260505190704 60 347 0.0 0.0 0.06 0.12 0.12 90 1004.4
20260505190205 60 144 0.0 0.0 0.04 0.10 0.10 90 1004.4
20260505185204 61 144 0.0 0.0 0.00 0.06 0.06 88 1004.5
20260505184704 61 144 0.0 0.0 0.00 0.06 0.06 88 1004.5
20260505183704 61 144 0.0 0.0 0.00 0.06 0.06 87 1004.4
20260505183204 61 144 0.0 0.0 0.00 0.06 0.06 87 1004.4
20260505182704 61 144 0.0 1.0 0.00 0.06 0.06 87 1004.3
20260505182204 62 144 0.0 1.0 0.00 0.06 0.06 86 1004.2
20260505181704 62 144 0.0 1.0 0.00 0.06 0.06 85 1004.2
20260505181204 62 144 0.0 2.0 0.00 0.06 0.06 85 1004.2
20260505180704 62 144 0.0 2.0 0.00 0.06 0.06 84 1004.1
20260505180204 62 144 0.0 2.0 0.00 0.06 0.06 83 1004.0
20260505175704 63 11 0.0 0.0 0.00 0.06 0.06 83 1004.0
20260505175204 63 164 0.0 0.0 0.00 0.06 0.06 83 1004.0
20260505174704 63 142 0.0 0.0 0.00 0.06 0.06 81 1004.2
20260505174205 63 30 0.0 0.0 0.00 0.06 0.06 81 1004.3
20260505173705 64 19 0.0 0.0 0.00 0.06 0.06 81 1004.6
20260505173204 64 19 0.0 0.0 0.00 0.06 0.06 81 1004.8
20260505172704 64 19 0.0 0.0 0.00 0.06 0.06 81 1004.8
20260505172205 64 19 0.0 0.0 0.00 0.06 0.06 81 1004.9
20260505171705 64 19 0.0 0.0 0.00 0.06 0.06 80 1004.9
20260505171204 64 19 0.0 0.0 0.00 0.06 0.06 80 1005.0
20260505170723 65 19 0.0 0.0 0.00 0.06 0.06 80 1005.0
20260505170204 65 19 0.0 0.0 0.00 0.06 0.06 80 1004.9
20260505165704 65 19 0.0 0.0 0.00 0.06 0.06 79 1004.9
20260505165204 65 19 0.0 0.0 0.00 0.06 0.06 79 1004.9
20260505164704 65 57 0.0 0.0 0.00 0.06 0.06 79 1005.0
20260505164204 65 57 0.0 0.0 0.00 0.06 0.06 80 1005.0
20260505163704 65 57 0.0 1.0 0.00 0.06 0.06 79 1005.0
20260505162704 66 57 0.0 1.0 0.00 0.06 0.06 79 1005.1
20260505162204 66 57 0.0 0.0 0.00 0.06 0.06 79 1005.2
20260505161719 66 334 0.0 1.0 0.00 0.06 0.06 79 1005.2
20260505161205 66 333 0.0 1.0 0.00 0.06 0.06 78 1005.2
20260505160229 66 333 0.0 2.0 0.00 0.06 0.06 79 1005.2
20260505153204 67 40 0.0 0.0 0.00 0.06 0.06 77 1005.5
20260505152704 67 75 0.0 0.0 0.00 0.06 0.06 76 1005.6
20260505152204 67 75 0.0 0.0 0.00 0.06 0.06 75 1005.7
20260505151704 67 96 0.0 0.0 0.00 0.06 0.06 74 1005.7
20260505151208 67 26 0.0 0.0 0.00 0.06 0.06 75 1005.8
20260505150705 67 44 0.0 0.0 0.00 0.06 0.06 75 1005.8
20260505150204 67 28 0.0 0.0 0.00 0.06 0.06 72 1005.9
20260505140204 68 337 0.0 2.0 0.00 0.06 0.06 76 1006.3
20260505130205 66 11 0.0 1.0 0.00 0.06 0.06 79 1006.4
20260505124704 65 309 0.0 2.0 0.00 0.06 0.06 79 1006.7
20260505124204 65 309 0.0 2.0 0.00 0.06 0.06 79 1006.8
20260505123704 65 84 0.0 1.0 0.00 0.06 0.06 79 1006.8
20260505123203 65 163 0.0 1.0 0.00 0.06 0.06 81 1006.8
20260505122704 65 176 0.0 1.0 0.00 0.06 0.06 81 1006.8
20260505122204 65 29 0.0 2.0 0.00 0.06 0.06 81 1006.9
20260505121707 65 96 0.0 2.0 0.00 0.06 0.06 80 1006.9
20260505121204 66 82 0.0 1.0 0.00 0.06 0.06 82 1006.9
20260505120204 65 355 0.0 2.0 0.00 0.06 0.06 83 1006.9
20260505115204 65 27 0.0 0.0 0.00 0.06 0.06 85 1007.0
20260505114204 64 344 0.0 0.0 0.00 0.06 0.06 86 1006.9
20260505113707 64 344 0.0 0.0 0.00 0.06 0.06 87 1007.0
20260505113204 64 344 0.0 0.0 0.00 0.06 0.06 86 1007.1
20260505112707 64 344 0.0 0.0 0.00 0.06 0.06 87 1007.1
20260505112204 63 295 0.0 0.0 0.00 0.06 0.06 87 1007.1
20260505111704 63 295 0.0 0.0 0.00 0.06 0.06 89 1007.2
20260505111204 63 295 0.0 1.0 0.00 0.06 0.06 88 1007.3
20260505110205 62 293 0.0 1.0 0.00 0.06 0.06 89 1007.5
20260505102204 61 342 0.0 0.0 0.00 0.06 0.06 92 1007.7
20260505101704 61 342 0.0 0.0 0.00 0.06 0.06 92 1007.7
20260505101204 61 342 0.0 0.0 0.00 0.06 0.06 92 1007.7
20260505100704 61 342 0.0 0.0 0.00 0.06 0.06 93 1007.7
20260505100204 61 342 0.0 0.0 0.00 0.06 0.06 92 1007.6
20260505095704 61 342 0.0 0.0 0.00 0.06 0.06 92 1007.7
20260505094704 61 342 0.0 0.0 0.00 0.06 0.06 92 1007.6
20260505094204 61 342 0.0 0.0 0.00 0.06 0.06 93 1007.6
20260505093704 61 342 0.0 0.0 0.00 0.06 0.06 92 1007.7
20260505093204 60 342 0.0 0.0 0.00 0.06 0.06 93 1007.7
20260505092704 60 342 0.0 0.0 0.00 0.06 0.06 93 1007.7
20260505091704 60 342 0.0 0.0 0.01 0.06 0.06 95 1007.8
20260505091204 60 342 0.0 0.0 0.01 0.06 0.06 95 1007.8
20260505090704 59 342 0.0 0.0 0.01 0.06 0.06 95 1007.9
20260505090204 59 342 0.0 0.0 0.01 0.06 0.06 95 1007.9
20260505085704 59 342 0.0 0.0 0.01 0.06 0.06 95 1008.0
20260505084205 58 342 0.0 0.0 0.01 0.06 0.06 95 1008.0
20260505083704 58 342 0.0 0.0 0.01 0.06 0.06 95 1008.2
20260505083204 58 342 0.0 0.0 0.01 0.06 0.06 95 1008.2
20260505082704 58 342 0.0 0.0 0.01 0.06 0.06 95 1008.2
20260505082205 58 342 0.0 0.0 0.01 0.06 0.06 95 1008.2
20260505081204 58 342 0.0 0.0 0.00 0.06 0.06 95 1008.2
20260505080704 58 342 0.0 0.0 0.00 0.06 0.06 95 1008.3
20260505080204 58 342 0.0 0.0 0.00 0.06 0.06 95 1008.2
20260505075704 58 342 0.0 0.0 0.00 0.06 0.06 96 1008.2
20260505075204 58 342 0.0 0.0 0.00 0.06 0.06 96 1008.0
20260505074704 58 342 0.0 0.0 0.00 0.06 0.06 95 1008.2
20260505074204 58 342 0.0 0.0 0.00 0.06 0.06 95 1008.2
20260505073704 58 342 0.0 0.0 0.00 0.06 0.06 95 1008.2
20260505073204 58 342 0.0 0.0 0.00 0.06 0.06 95 1008.0
20260505072705 58 342 0.0 0.0 0.00 0.06 0.06 95 1008.2
20260505072207 57 342 0.0 0.0 0.00 0.06 0.06 95 1008.0
20260505071704 57 342 0.0 0.0 0.00 0.06 0.06 95 1008.0
20260505070719 57 342 0.0 0.0 0.01 0.06 0.06 95 1008.2
20260505070204 57 342 0.0 0.0 0.01 0.06 0.06 95 1008.0
20260505065704 57 342 0.0 0.0 0.01 0.06 0.06 95 1008.2
20260505064704 57 342 0.0 0.0 0.01 0.06 0.06 95 1008.2
20260505064204 57 342 0.0 0.0 0.01 0.06 0.06 95 1008.4
20260505063204 57 342 0.0 0.0 0.02 0.06 0.06 95 1008.4
20260505062704 57 342 0.0 0.0 0.02 0.06 0.06 95 1008.5
20260505062204 57 342 0.0 0.0 0.02 0.06 0.06 95 1008.5
20260505061704 57 342 0.0 0.0 0.02 0.06 0.06 95 1008.6
20260505061204 57 342 0.0 0.0 0.01 0.05 0.05 95 1008.7
20260505060204 57 342 0.0 0.0 0.01 0.05 0.05 95 1008.8
20260505055704 57 342 0.0 0.0 0.01 0.05 0.05 95 1008.8
20260505055204 57 342 0.0 0.0 0.02 0.05 0.05 95 1008.8
20260505054704 57 342 0.0 0.0 0.02 0.05 0.05 95 1008.8
20260505054204 57 342 0.0 0.0 0.01 0.04 0.04 95 1008.9
20260505053704 57 342 0.0 0.0 0.02 0.04 0.04 95 1008.8
20260505053205 57 342 0.0 0.0 0.02 0.04 0.04 95 1008.8
20260505052705 57 342 0.0 0.0 0.02 0.04 0.04 95 1008.7
20260505052204 57 342 0.0 0.0 0.03 0.04 0.04 95 1008.6
20260505051704 57 342 0.0 0.0 0.04 0.04 0.04 95 1008.7
20260505051230 57 342 0.0 0.0 0.04 0.04 0.04 95 1008.6
20260505050704 57 342 0.0 0.0 0.04 0.04 0.04 95 1008.6
20260505041704 56 342 0.0 0.0 0.00 0.00 0.00 94 1008.6
20260505041207 56 342 0.0 0.0 0.00 0.00 0.00 93 1008.6
20260505040204 56 342 0.0 0.0 0.00 0.00 0.00 93 1008.4
20260505035704 56 342 0.0 0.0 0.00 0.00 0.00 93 1008.4
20260505035204 56 342 0.0 0.0 0.00 0.00 0.00 93 1008.4
20260505034704 56 342 0.0 0.0 0.00 0.00 0.00 93 1008.4